Location: Sainte-C�cile
(43.6172°N, 4.5708°E)
Time: 01:51:21
(UTC+00:00)

Daily predictions for brighter satellites

Satellite Brightness Start Highest point End
(mag) Time Altitude Azimuth Time Altitude Azimuth Time Altitude Azimuth
Cosmos 1464 Rocket 3.9 00:08:47 77° E 00:08:47 77° E 00:14:59 10° N
Cosmos 2333 4.4 00:05:14 10° NNW 00:10:14 65° NW 00:10:14 65° NW
Lacrosse 4 Rocket 3.0 00:13:01 35° N 00:13:01 35° N 00:15:36 10° NNE
Cosmos 2219 Rocket 2.3 00:05:52 10° NNW 00:11:13 72° NNE 00:11:13 72° NNE
Cosmos 1354 Rocket 4.4 00:16:38 60° NE 00:16:38 60° NE 00:21:05 10° NNE
Cosmos 968 Rocket 4.0 00:19:13 54° NNW 00:19:13 54° NNW 00:23:32 10° NNE
Cosmos 2322 Rocket 4.2 00:15:25 10° WNW 00:17:43 17° W 00:17:43 17° W
COSMOS 2428 2.8 00:23:57 10° NNW 00:29:11 75° NNW 00:29:11 75° NNW
SL-16 R/B 3.7 00:28:37 27° ESE 00:31:08 38° ENE 00:36:49 10° N
Nadezhda 4 Rocket 3.9 00:28:38 10° N 00:34:59 82° E 00:35:18 78° SE
Cosmos 2360 Rocket 3.8 00:30:31 10° NW 00:33:24 22° WNW 00:33:24 22° WNW
Cosmos 2034 Rocket 3.8 00:35:41 84° SSE 00:35:52 87° E 00:42:12 10° N
CZ-2D R/B 3.4 00:33:01 10° NNE 00:37:53 31° E 00:38:05 31° E
Okean 2 Rocket 4.0 00:41:46 47° NNE 00:41:46 47° NNE 00:45:04 10° NNE
Meteor 2-9 Rocket 4.5 00:41:29 58° WNW 00:41:29 58° WNW 00:46:45 10° N
GEOS 3 Rocket 3.7 00:37:40 10° NE 00:42:46 78° ENE 00:42:46 78° ENE
Cosmos 2297 Rocket 3.0 00:45:36 40° ESE 00:45:36 40° ESE 00:50:39 10° NE
Cosmos 2219 3.8 00:45:50 46° E 00:45:50 46° E 00:50:56 10° NE
ADEOS II 4.3 00:43:15 10° NE 00:46:07 15° E 00:47:27 13° ESE
Cosmos 1092 Rocket 4.2 00:40:51 10° N 00:47:05 63° E 00:48:01 56° ESE
Cosmos 1777 Rocket 4.4 00:49:00 54° E 00:49:00 54° E 00:53:44 10° NNE
Cosmos 1980 4.2 00:43:08 10° NNW 00:48:44 57° ENE 00:49:51 48° ESE
Cosmos 2333 Rocket 2.9 00:43:49 10° NW 00:48:11 43° WNW 00:48:11 43° WNW
Helios 1B rocket 3.8 00:46:11 10° N 00:48:49 35° NNW 00:48:49 35° NNW
Cosmos 44 Rocket 3.7 00:51:05 10° NNW 00:55:08 59° NNW 00:55:08 59° NNW
Cosmos 1300 Rocket 4.4 00:57:53 48° N 00:57:53 48° N 01:01:02 10° N
Cosmos 2237 Rocket 2.5 00:53:11 10° NNW 00:58:49 63° ENE 00:59:51 53° ESE
Okean 1 Rocket 4.3 01:01:02 34° ENE 01:01:02 34° ENE 01:04:32 10° NNE
ATLAS 3B CENTAUR R/B 4.4 01:13:44 31° SSE 01:13:44 31° SSE 01:19:09 10° ESE
Cosmos 2151 Rocket 4.1 01:12:29 55° NNW 01:12:29 55° NNW 01:16:01 10° N
Meteor 1-12 Rocket 4.3 01:11:28 68° WSW 01:11:50 70° WNW 01:17:51 10° N
Timation 2 Rocket 3.9 01:14:34 64° WSW 01:15:21 72° WNW 01:21:25 10° NNE
In-Cosmos 22 4.0 01:13:35 10° NNW 01:19:11 75° W 01:19:15 75° WSW
Meteor 1-15 Rocket 4.2 01:22:53 67° SSE 01:23:35 77° E 01:29:12 10° NNE
Cosmos 1805 4.2 01:24:26 44° NE 01:24:26 44° NE 01:27:29 10° NNE
SJ 16-02 2.6 01:25:10 31° ESE 01:25:14 31° E 01:29:09 10° NE
ERBS 4.5 01:24:47 10° NNW 01:27:37 25° NNE 01:30:25 10° E
Meteor 2-13 Rocket 4.4 01:27:23 10° NNW 01:33:25 66° W 01:34:11 60° SW
Cosmos 2227 Rocket 2.0 01:33:34 68° S 01:34:19 84° ESE 01:40:01 10° NNE
Cosmos 1538 Rocket 3.8 01:30:40 10° NNW 01:35:50 75° WSW 01:35:51 75° WSW
Cosmos 2195 Rocket 4.5 01:29:49 10° NNW 01:36:03 64° W 01:37:03 56° SW
MOZ.5/SAFIR/RUBIN 5/SL-8 4.3 01:37:00 46° WNW 01:37:00 46° WNW 01:40:53 10° NNW
Cosmos 1025 Rocket 4.5 01:33:41 10° NNW 01:36:08 27° NW 01:36:08 27° NW
Resurs 1-4 Rocket 1.9 01:33:32 10° N 01:38:50 78° WNW 01:39:24 69° SW
Cosmos 1674 3.6 01:37:15 10° N 01:39:47 41° NNW 01:39:47 41° NNW
Cosmos 1733 3.7 01:42:54 55° ENE 01:42:54 55° ENE 01:46:16 10° NNE
NOSS 0 Rocket 4.4 01:39:10 10° NW 01:44:40 41° W 01:44:40 41° W
Cosmos 2279 Rocket 3.9 01:44:46 50° S 01:46:32 85° E 01:52:46 10° N
Cosmos 1461 4.1 01:47:03 32° ESE 01:47:14 32° ESE 01:51:14 10° NE
COBE Rocket 4.0 01:47:33 48° SE 01:48:44 67° ENE 01:53:21 10° N
USA 215 3.2 01:42:50 10° NE 01:49:24 75° SE 01:51:29 46° SSW
Cosmos 2026 Rocket 4.0 01:44:10 10° NNW 01:50:06 57° W 01:51:09 51° SW
Cosmos 1634 Rocket 4.2 01:50:26 47° WSW 01:51:45 55° WNW 01:57:53 10° N
Cosmos 2219 Rocket 4.2 01:51:29 10° WNW 01:52:54 14° WNW 01:52:54 14° WNW
SL-24 R/B 4.4 01:53:41 51° SSE 01:54:51 76° E 01:59:49 10° N
Cosmos 2082 3.7 01:53:29 50° S 01:54:53 71° ESE 02:00:29 10° NNE
Cosmos 2344 4.4 01:46:44 10° NW 01:56:36 74° WSW 02:10:24 10° SSE
SL-4 R/B 2.9 01:58:02 18° NW 02:00:10 39° NNE 02:03:24 10° E
Meteor 1-24 Rocket 3.6 02:01:00 10° N 02:06:31 84° E 02:08:55 34° SSE
SL-16 R/B 2.2 02:01:44 10° NNW 02:07:29 81° ENE 02:12:33 13° SSE
CBERS-1 3.9 02:02:32 10° NNE 02:07:41 87° ESE 02:09:09 48° SSW
Cosmos 1937 Rocket 4.5 02:06:56 26° SSE 02:09:23 41° ESE 02:14:20 10° NE
Meteor 2-5 Rocket 3.6 02:04:37 10° NNW 02:10:14 69° W 02:11:59 43° SSW
Cosmos 1898 Rocket 3.8 02:11:42 37° S 02:13:38 61° ESE 02:18:48 10° NNE
SL-16 R/B 3.0 02:13:42 36° WSW 02:14:41 38° W 02:20:29 10° NNW
ARIANE 5 R/B 3.3 02:10:05 10° NNE 02:15:09 49° E 02:18:02 24° SSE
NPP 4.2 02:11:52 10° N 02:16:58 44° WNW 02:18:22 37° WSW
CZ-2D R/B 3.0 02:12:55 10° N 02:17:57 38° WNW 02:19:24 32° W
IDEFIX/ARIANE 42P 3.9 02:13:15 10° NNE 02:17:58 34° E 02:21:55 14° SSE
Cosmos 1680 Rocket 3.4 02:13:54 10° NNW 02:19:11 88° ENE 02:22:58 19° SSE
NOSS 3-1 (C) 3.6 02:17:24 35° S 02:19:32 57° ESE 02:25:33 10° NE
USA 267 3.8 02:14:35 10° ESE 02:20:59 60° NNE 02:27:25 10° NW
Cosmos 1544 Rocket 4.1 02:20:01 30° SSE 02:21:58 55° E 02:26:21 10° NNE
AQUA 4.4 02:18:59 10° N 02:23:28 42° WNW 02:24:27 37° W
Cosmos 990 Rocket 3.9 02:23:20 39° SSW 02:25:18 84° ESE 02:30:31 10° NNE
Cosmos 1607 3.9 02:19:41 10° NW 02:26:10 81° WSW 02:32:37 10° SSE
ADEOS II 2.0 02:21:06 10° N 02:26:21 74° WNW 02:28:23 38° SSW
Cosmos 1766 4.2 02:26:32 32° WNW 02:26:32 32° WNW 02:29:58 10° N
Cosmos 2263 Rocket 3.5 02:23:53 15° SSE 02:27:48 32° ESE 02:32:40 10° NE
Meteor 1-22 Rocket 4.1 02:27:12 40° SW 02:28:57 61° WNW 02:34:13 10° N
Cosmos 2297 Rocket 3.2 02:27:24 25° W 02:29:31 33° NW 02:34:37 10° N
Cosmos 2219 4.4 02:27:45 22° W 02:29:55 29° NW 02:34:46 10° N
IRS-1D 3.7 02:25:13 10° N 02:30:09 57° WNW 02:31:54 37° SW
Okean 1-7 Rocket 3.4 02:28:40 10° N 02:33:05 81° W 02:35:04 32° S
IRS-1C 4.1 02:30:37 10° NNE 02:35:59 84° WNW 02:38:42 30° SSW
TIMED 4.4 02:33:14 10° NNW 02:37:35 65° WSW 02:39:36 30° S
Meteor 1-28 Rocket 3.1 02:36:22 31° SSE 02:38:06 88° ENE 02:41:55 10° NNW
Cosmos 1626 2.7 02:35:38 10° NNW 02:38:56 37° W 02:38:56 37° W
Cosmos 2266 Rocket 3.9 02:33:45 10° N 02:40:08 75° W 02:45:02 17° S
Cosmos 1655 Rocket 4.1 02:34:49 10° NNW 02:40:55 55° W 02:44:28 25° SSW
Cosmos 2237 Rocket 3.6 02:38:25 10° NW 02:41:36 19° W 02:41:36 19° W
Cosmos 1470 2.7 02:41:43 43° SSW 02:42:53 70° W 02:46:52 10° N
CZ-4B R/B 4.1 02:38:59 10° N 02:43:20 36° WNW 02:44:50 28° WSW
SL-08 R/B 3.3 02:43:56 20° S 02:47:23 69° WSW 02:52:22 10° NNW
USA 229 DEB 3.6 02:48:34 25° SSW 02:52:37 83° SE 02:59:28 10° NE
USA 229 3.6 02:48:39 25° SSW 02:52:42 83° ESE 02:59:33 10° NE
Cosmos 2098 Rocket 3.8 02:50:20 10° NNW 02:55:05 54° W 02:59:34 17° SSW
NOSS 3 (A) 4.2 02:55:49 60° SW 02:56:13 88° NW 02:59:05 10° NE
Cosmos 158 Rocket 4.4 02:51:52 10° NNW 02:56:57 43° WSW 03:00:33 18° SSW
NOSS 2-3 (C) 3.8 03:01:07 24° SSW 03:03:37 66° ESE 03:08:27 10° NE
NOSS 3-1 (A) 3.4 03:00:07 21° SSW 03:03:47 72° ESE 03:09:59 10° NE
SJ 16-02 2.7 03:02:10 21° W 03:03:49 26° WNW 03:07:33 10° N
ERBS 2.7 03:00:53 10° WNW 03:03:57 36° SW 03:06:59 10° SSE
Meteor 2-14 Rocket 4.4 02:58:51 10° N 03:04:57 88° E 03:11:01 10° S
CSL-04 DEB 4.3 03:05:02 10° SSE 03:08:57 87° ENE 03:12:53 10° NNW
Cosmos 1455 Rocket 4.1 03:11:32 22° WSW 03:13:20 29° WNW 03:17:15 10° NNW
MSX 4.0 03:08:20 10° NNE 03:14:08 75° ESE 03:19:53 10° S
Cosmos 1809 Rocket 4.4 03:08:09 10° NNW 03:14:11 64° W 03:20:12 10° S
Cosmos 1943 3.6 03:08:38 10° NNW 03:14:15 65° ENE 03:19:49 10° SE
Cosmos 1758 4.1 03:13:24 23° SW 03:15:16 36° WNW 03:19:01 10° N
Cosmos 1626 Rocket 3.5 03:11:07 10° NNW 03:15:24 62° W 03:19:39 10° S
Resurs 1-4 Rocket 4.2 03:15:57 10° NW 03:17:45 12° NW 03:19:34 10° WNW
Spot 4 Rocket 4.1 03:13:34 10° N 03:18:41 65° WNW 03:23:00 15° SSW
Cosmos 2227 Rocket 4.0 03:15:24 10° W 03:19:06 18° NW 03:22:59 10° N
Meteor 1-21 Rocket 4.1 03:13:40 10° NNW 03:19:14 78° W 03:24:45 10° S
SeaSat 1 2.7 03:17:55 10° NNE 03:22:52 69° ESE 03:27:42 10° SSW
Landsat 5 3.3 03:19:48 10° SSE 03:23:40 87° WSW 03:27:42 10° NNW
Cosmos 1461 4.2 03:23:26 16° WSW 03:26:19 32° NW 03:30:25 10° NNE
CZ-2C R/B 2.7 03:22:55 10° N 03:26:49 70° WNW 03:30:09 13° SSW
CZ-2D R/B 3.9 03:24:31 10° N 03:28:21 41° WNW 03:31:10 16° SW
Cosmos 2227 4.3 03:24:45 14° SSW 03:29:42 74° WNW 03:35:30 10° NNE
FALCON 9 DEB 3.1 03:27:29 10° NW 03:30:58 88° SW 03:34:25 10° SE
ATLAS CENTAUR R/B 3.4 03:28:10 10° SSE 03:31:34 24° ESE 03:34:49 10° ENE
Cosmos 1340 Rocket 4.2 03:29:56 16° WSW 03:31:57 24° WNW 03:35:12 10° NNW
USA 215 4.1 03:26:03 10° NE 03:32:09 43° NNW 03:38:13 10° W
ATLAS 3B CENTAUR R/B 4.0 03:27:05 14° WSW 03:33:00 22° SSW 03:37:32 10° SSE
Cosmos 1758 Rocket 3.7 03:29:04 10° N 03:33:23 75° E 03:37:41 10° SSE
ERS-2 2.0 03:31:20 10° S 03:34:57 71° WSW 03:38:36 10° NNW
Cosmos 2228 3.7 03:31:51 10° S 03:36:07 57° E 03:40:25 10° NNE
Cosmos 724 4.3 03:31:06 10° NW 03:37:05 67° WSW 03:43:08 10° SSE
Cosmos 1953 2.9 03:35:03 14° SW 03:38:11 39° WNW 03:42:00 10° N
SL-4 R/B 2.1 03:36:33 10° WNW 03:39:40 34° SW 03:42:47 10° SSE
Cosmos 1726 3.1 03:38:38 15° SW 03:41:09 29° WNW 03:44:26 10° NNW
Cosmos 1908 3.2 03:39:23 10° SSW 03:43:16 76° W 03:47:12 10° N
Meteor 1-16 Rocket 4.2 03:39:04 10° SSW 03:44:23 67° WNW 03:49:52 10° N
Cosmos 2285 Rocket 4.1 03:39:51 10° SSW 03:46:10 88° ESE 03:52:30 10° NNE
H-2A R/B 2.4 03:45:30 10° S 03:49:23 40° W 03:53:16 10° NNW
SL-16 R/B 3.8 03:47:49 10° WNW 03:50:48 15° W 03:53:46 10° SW
Cosmos 2150 Rocket 4.0 03:45:52 10° SSW 03:51:01 82° WNW 03:56:16 10° NNE
ARIANE 5 R/B 3.9 03:49:50 10° NNW 03:53:55 24° WNW 03:58:01 10° WSW
Cosmos 1825 Rocket 3.5 03:51:38 10° N 03:55:59 78° W 04:00:17 10° S
IDEFIX/ARIANE 42P 3.5 03:52:55 10° N 03:57:29 32° WNW 04:02:03 10° SW
CZ-4C R/B 4.0 03:56:11 10° SSW 03:58:49 24° W 04:01:33 10° NW
Cosmos 1328 3.9 03:56:25 10° NNW 04:00:21 58° W 04:04:16 10° S
ADEOS 4.0 03:55:31 10° NNE 04:00:44 65° ESE 04:05:54 10° S
CZ-4B R/B 1.5 03:58:30 10° SSE 04:01:48 80° ENE 04:05:03 10° N
Cosmos 1953 Rocket 3.8 03:57:31 10° N 04:02:02 81° E 04:06:31 10° S
NOSS 2-3 (E) 4.5 03:58:10 10° WSW 04:02:14 40° NW 04:07:01 10° NNE
USA 267 3.5 03:57:54 10° SSE 04:04:06 46° SW 04:10:22 10° WNW
ADEOS II 4.2 04:03:41 10° NW 04:05:07 11° NW 04:06:33 10° WNW
Cosmos 2263 Rocket 2.9 04:06:23 10° SW 04:11:35 39° WNW 04:16:48 10° NNE
